Regional Weather Roundup
Issued by NWS

Home | Current Version | Previous Version | Graphics & Text | Print | Product List | Glossary On
Versions: 1 2 3 4 5 6 7 8 9 10 11 12 13 14 15 16 17 18 19 20 21 22 23 24 25 26 27 28 29 30 31 32 33 34 35 36 37 38 39 40 41 42 43 44 45 46 47 48 49 50
000
ASUS43 KMKX 212121
RWRWI

WISCONSIN REGIONAL WEATHER ROUNDUP
NATIONAL WEATHER SERVICE MILWAUKEE/SULLIVAN WI
400 PM CDT THU SEP 21 2017

NOTE: "FAIR" INDICATES FEW OR NO CLOUDS BELOW 12,000 FEET WITH NO
SIGNIFICANT WEATHER AND/OR OBSTRUCTIONS TO VISIBILITY.

WIZ001-002-006>008-014>016-023>028-212200-
NORTHWEST WISCONSIN

CITY           SKY/WX    TMP DP  RH WIND       PRES   REMARKS
SUPERIOR ARPT  PTSUNNY   64  59  85 NE15G21   29.93F
ASHLAND        SUNNY     70  58  65 NE12      29.95F
HAYWARD        SUNNY     80  63  55 SE13      29.91F HX  81
SIREN          SUNNY     81  62  52 SE8       29.87F HX  82
CUMBERLAND     CLOUDY    77  64  65 SE15      29.90S
RICE LAKE      CLOUDY    76  66  71 SE13      29.92S
CHETEK         CLOUDY    76  69  80 SE14G21   29.92S
LADYSMITH      MOSUNNY   76  67  72 S12       29.95F
EAU CLAIRE     MOSUNNY   79  68  69 SE9       29.90F HX  81
MENOMONIE      MOSUNNY   79  68  68 E14       29.89F HX  82
NEW RICHMOND   MOSUNNY   81  65  59 SE10G20   29.87S HX  83
OSCEOLA        SUNNY     82  66  59 SE13G21   29.88F HX  84
$$

WIZ003>005-009-010-017-018-212200-
NORTH CENTRAL WISCONSIN

CITY           SKY/WX    TMP DP  RH WIND       PRES   REMARKS
MANITOWISH WTR MOSUNNY   79  66  64 S12       29.97F HX  81
ARBOR VITAE    SUNNY     80  67  64 SE9       29.98S HX  82
WOODRUFF       SUNNY     80  67  64 SE9       29.98S HX  82
RHINELANDER    PTSUNNY   78  69  73 SE10      30.00S HX  80
EAGLE RIVER    MOSUNNY   79  60  51 S8G16     29.99F HX  80
LAND O LAKES   SUNNY     80  62  55 S12       30.01F HX  81
PHILLIPS       PTSUNNY   78  69  72 SE13      29.96S HX  81
TOMAHAWK       CLOUDY    75  66  74 SE6       29.99S
MEDFORD        CLOUDY    71  67  86 SE8       29.98S
MERRILL        CLOUDY    74  69  83 SE8       29.99F
$$

WIZ029-030-035-036-043>047-212200-
CENTRAL WISCONSIN

CITY           SKY/WX    TMP DP  RH WIND       PRES   REMARKS
WAUSAU         CLOUDY    76  67  73 SE9       29.98S
MOSINEE        MOSUNNY   75  70  83 SE7       30.00F
MARSHFIELD     MOSUNNY   79  66  64 SE12      29.97F HX  81
STEVENS POINT  PTSUNNY   77  67  72 SE9       29.99F
WAUPACA        SUNNY     84  66  53 S8        29.99S HX  86
WAUTOMA        CLOUDY    83  65  54 S7        29.98F HX  85
WISC RAPIDS    PTSUNNY   82  68  62 S8G20     29.98F HX  85
CAMP DOUGLAS   MOSUNNY   84  66  54 SE13      29.95F HX  86
$$

WIZ011>013-019>022-031-037>040-048>050-212200-
NORTHEAST WISCONSIN

CITY           SKY/WX    TMP DP  RH WIND       PRES   REMARKS
ANTIGO         CLOUDY    72  68  89 SE9       30.02S
SHAWANO        MOSUNNY   80  69  69 CALM      29.99F HX  83
OCONTO         CLOUDY    77  69  75 CALM      29.99F
STURGEON BAY   SUNNY     78  68  71 E8        30.01S HX  80
GREEN BAY      CLOUDY    81  72  74 NE8       29.99S HX  85
MANITOWOC      CLOUDY    73  67  81 E6        30.01F
APPLETON       PTSUNNY   82  64  54 S8        29.98F HX  84
CLINTONVILLE   MOSUNNY   81  66  61 S5        29.99S HX  83
OSHKOSH        CLOUDY    84  66  54 S9        29.98F HX  86
$$

WIZ032>034-041-042-053>061-212200-
SOUTHWEST WISCONSIN

CITY           SKY/WX    TMP DP  RH WIND       PRES   REMARKS
LA CROSSE      SUNNY     90  64  43 SE14      29.89  HX  91
SPARTA         SUNNY     83  65  54 S12       29.93F HX  84
VIROQUA        SUNNY     84  65  52 SE8       29.94F HX  86
BOSCOBEL       CLOUDY    89  61  38 VRB7      29.92F HX  89
PRAIRIE DU CHI CLOUDY    87  59  38 SE12      29.91S HX  86
PLATTEVILLE    CLOUDY    85  62  45 SE13      29.97S HX  86
$$

WIZ056-057-062-063-064-067-068-212200-
SOUTH CENTRAL WISCONSIN

CITY           SKY/WX    TMP DP  RH WIND       PRES   REMARKS
REEDSBURG      SUNNY     84  65  53 S7        29.96S HX  85
BARABOO/DELLS  SUNNY     83  63  52 SE9       29.97S HX  84
LONE ROCK      SUNNY     85  65  51 SE13      29.94F HX  86
MINERAL POINT  MOSUNNY   86  61  42 S12       29.97S HX  86
MADISON        PTSUNNY   84  69  60 SE9       29.97S HX  88
MIDDLETON      PTSUNNY   84  68  58 SE9       29.98F HX  87
WATERTOWN      CLOUDY    82  68  62 E5        29.97F HX  85
MONROE         CLOUDY    82  63  51 S7        29.98F HX  83
JANESVILLE     PTSUNNY   91  57  31 SE8G17    29.96F HX  90
$$

WIZ051-052-058>065-066-070>072-212200-
SOUTHEAST WISCONSIN

CITY           SKY/WX    TMP DP  RH WIND       PRES   REMARKS
MILWAUKEE      CLOUDY    81  69  67 SE8       29.99F HX  84
WAUKESHA       SUNNY     82  64  54 E9        30.00F HX  84
MILWAUKEE/TIMM SUNNY     84  61  45 E8        30.01F HX  84
RACINE         PTSUNNY   79  70  74 SE12      30.01F HX  82
BURLINGTON     MOSUNNY   92  64  38 S8        29.98S HX  94
KENOSHA        MOSUNNY   84  68  58 E10       30.00F HX  87
FOND DU LAC    MOSUNNY   85  60  42 S7        29.99F HX  85
SHEBOYGAN      MOSUNNY   82  72  71 E9        30.00F HX  87
WEST BEND        N/A     81  70  69 SE6       30.00F HX  84
JUNEAU         PTSUNNY   81  67  62 E3        30.00S HX  83
$$

LSZ147-162-212200-
LAKE SUPERIOR

STATION/POSITION TIME  TEMP    WIND        PRES    WAVE
                       AIR SEA DIR/SP/G            HT/PER
                 (UTC) (F)     (DEG/KT/KT) (MB)    (FT/S)
W MID LAKE BUOY  2050   57 54   40/ 14/ 16 1015.1F   1/ 3
DEVILS ISLAND    2100   60      70/ 15/ 16 1014.6F
PORT WING        1840   74      30/ 18/ 20 1014.6
SAXON HARBOR     2030   63      40/ 10/ 12 1013.5F
$$

LMZ867-665-643>646-212200-
LAKE MICHIGAN

STATION/POSITION TIME  TEMP    WIND        PRES    WAVE
                       AIR SEA DIR/SP/G            HT/PER
                 (UTC) (F)     (DEG/KT/KT) (MB)    (FT/S)
S GREEN BAY BUOY 2100   69 68   20/  6/  6 1015.6F
N MID LAKE BUOY  2050   67 67  120/  4/  4 1016.6F   1/ 5
NORTHPORT PIER   2040   69     130/  4/  7 1015.9F
KEWAUNEE LAKESHO 2054   66     110/  2/  3 1015.4F
SHEBOYGAN LAKESH 2100   69     140/  5/  5 1015.6F
PORT WASHINGTON  2030   74     130/  1/  3 1016.9S
ATWATER BUOY     2009   71 67  130/  4/  6 1016.0F
MILWAUKEE LAKESH 2100   72     340/  2/  2   N/A
S MID LAKE BUOY  2050   72 71  140/  6/  6 1015.9F   0
KENOSHA   LAKESH 2100   76     160/  5/  7 1015.2
$$

TC  - TEMPERATURE IN CELSIUS
VSB - VISIBILITY IN STATUTE MILES
WCI - WIND CHILL INDEX
HX  - HEAT INDEX





USA.gov is the U.S. government's official web portal to all federal, state and local government web resources and services.